(134497) = 1999 BQ1

Discovered at Visnjan on 1999-01-16 by K. Korlevic.

Orbit

Orbit type: Main Belt

Note: WebGL enabled browser required.

epoch2023-09-13.0
epoch JD2460200.5
perihelion date2020-05-14.32602
perihelion JD2458983.82602
argument of perihelion (°)25.25762
ascending node (°)350.17319
inclination (°)8.63501
eccentricity0.2073218
perihelion distance (AU)2.1514083
Tisserand w.r.t. Jupiter3.3
ΔV w.r.t. Earth (km/sec)9.6
semimajor axis (AU)2.7141004
mean anomaly (°)268.18791
mean daily motion (°/day)0.22042710
aphelion distance (AU)3.277
period (years)4.47
P-vector [x]0.96312704
P-vector [y]0.21426334
P-vector [z]0.16271917
Q-vector [x]-0.26782400
Q-vector [y]0.82112902
Q-vector [z]0.50400142
absolute magnitude14.79
phase slope0.15
uncertainty0
referenceMPEC 2024-A34
observations used1376
oppositions17
arc length (days)8912
first opposition used1999
last opposition used2023
residual rms (arc-secs)0.63
perturbers coarse indicatorM-v
perturbers precise indicator003Ek
first observation date used1999-01-16.0
last observation date used2023-06-12.0
computer nameMPCLINUX
JD of orbit computation2456847.685376
perihelion JD uncertainty (days)8.6430E-05
argument of perihelion uncertainty (°)3.2826E-05
ascending node uncertainty (°)2.9510E-05
inclination uncertainty (°)6.0021E-06
eccentricity uncertainty 4.9014E-08
perihelion distance uncertainty (AU)1.3836E-07
Minimum Orbit Intersection Distances (in AU)
for orbit epoch: 2460200.5, reference: E2024-A34
Mercury1.80648
Venus1.43284
Earth1.15458
Mars0.75299
Jupiter2.20174
Saturn6.23093
Uranus15.2237
Neptune27.4066

Observations

1407 total observations over interval: 1999 01 16.89345 – 2023 06 12.378333
These data are available for download (format description).

Date (UT) J2000 RA J2000 Dec Magn Location Ref
1999 01 16.89345 08 44 31.97 +28 23 48.3 18.2   120 – Visnjan MPS 3691
1999 01 16.90534 08 44 31.15 +28 23 49.5   120 – Visnjan MPS 3691
1999 01 16.91905 08 44 30.25 +28 23 50.8   120 – Visnjan MPS 3691
1999 01 19.87181 08 41 20.05 +28 30 36.8 18.2   120 – Visnjan MPS 3691
1999 01 19.88841 08 41 18.93 +28 30 39.6   120 – Visnjan MPS 3691
1999 01 19.95468 08 41 14.51 +28 30 47.5   120 – Visnjan MPS 3691
1999 01 20.78856 08 40 20.28 +28 32 30.8 18.6   120 – Visnjan MPS 3691
1999 01 20.81270 08 40 18.74 +28 32 34.4   120 – Visnjan MPS 3691
1999 01 20.83392 08 40 17.32 +28 32 36.0   120 – Visnjan MPS 3691
1999 01 25.78870 08 34 51.38 +28 41 09.8 18.5   120 – Visnjan MPS 3691
1999 01 25.81634 08 34 49.52 +28 41 11.6   120 – Visnjan MPS 3691
1999 02 06.82693 08 22 08.18 +28 48 17.2 18.8   120 – Visnjan MPS 3854
1999 02 06.84191 08 22 07.31 +28 48 15.4   120 – Visnjan MPS 3854
1999 02 06.85711 08 22 06.33 +28 48 14.5   120 – Visnjan MPS 3854
2002 09 06.40132 04 17 02.51 +29 19 38.8 19.5   704 – Lincoln Laboratory ETS, New Mexico MPS 65417
2002 09 06.41578 04 17 03.36 +29 19 45.8 20.3   704 – Lincoln Laboratory ETS, New Mexico MPS 65417
2002 09 06.43031 04 17 04.44 +29 19 52.5 20.0   704 – Lincoln Laboratory ETS, New Mexico MPS 65417
2002 09 06.44480 04 17 05.30 +29 20 00.3 19.8   704 – Lincoln Laboratory ETS, New Mexico MPS 65417
2002 10 05.40384 04 39 55.12 +32 52 11.1 18.4   704 – Lincoln Laboratory ETS, New Mexico MPS 65417
2002 10 05.41937 04 39 55.42 +32 52 17.1 19.1   704 – Lincoln Laboratory ETS, New Mexico MPS 65417
2002 10 05.43497 04 39 55.68 +32 52 23.3 18.9   704 – Lincoln Laboratory ETS, New Mexico MPS 65417
2002 10 05.45072 04 39 55.99 +32 52 30.0 19.2   704 – Lincoln Laboratory ETS, New Mexico MPS 65417
2002 10 05.46625 04 39 56.24 +32 52 35.8 18.8   704 – Lincoln Laboratory ETS, New Mexico MPS 65417
2002 10 12.32894 04 41 25.74 +33 37 06.7 18.5   704 – Lincoln Laboratory ETS, New Mexico MPS 65417
2002 10 12.36002 04 41 25.82 +33 37 18.5 18.7   704 – Lincoln Laboratory ETS, New Mexico MPS 65417
2002 10 12.37551 04 41 25.84 +33 37 24.8 18.6   704 – Lincoln Laboratory ETS, New Mexico MPS 65417
2002 10 12.39104 04 41 25.90 +33 37 30.9 18.7   704 – Lincoln Laboratory ETS, New Mexico MPS 65417
2002 10 31.33102 04 36 10.44 +35 18 07.7 18.7   704 – Lincoln Laboratory ETS, New Mexico MPS 67505
2002 10 31.34748 04 36 09.69 +35 18 12.2 18.8   704 – Lincoln Laboratory ETS, New Mexico MPS 67505
2002 10 31.36388 04 36 09.05 +35 18 16.2 19.1   704 – Lincoln Laboratory ETS, New Mexico MPS 67505
2002 10 31.38019 04 36 08.35 +35 18 20.6 19.6   704 – Lincoln Laboratory ETS, New Mexico MPS 67505
2002 10 31.39671 04 36 07.72 +35 18 23.8 18.7   704 – Lincoln Laboratory ETS, New Mexico MPS 67505
2002 11 07.35832 04 30 51.20 +35 42 14.6 18.3   704 – Lincoln Laboratory ETS, New Mexico MPS 65417
2002 11 07.37541 04 30 50.28 +35 42 17.4 18.6   704 – Lincoln Laboratory ETS, New Mexico MPS 65417
2002 11 07.39243 04 30 49.32 +35 42 20.4 18.2   704 – Lincoln Laboratory ETS, New Mexico MPS 65417
2002 11 07.40985 04 30 48.38 +35 42 22.9 18.2   704 – Lincoln Laboratory ETS, New Mexico MPS 65417
2002 11 07.42773 04 30 47.42 +35 42 26.0 18.6   704 – Lincoln Laboratory ETS, New Mexico MPS 65417
2002 11 15.37169 04 23 05.00 +35 57 21.4 18.9   704 – Lincoln Laboratory ETS, New Mexico MPS 65417
2002 11 15.38921 04 23 03.89 +35 57 22.6 18.3   704 – Lincoln Laboratory ETS, New Mexico MPS 65417
2002 11 15.40687 04 23 02.75 +35 57 23.6 18.1   704 – Lincoln Laboratory ETS, New Mexico MPS 65417
2002 11 15.42441 04 23 01.62 +35 57 24.4 18.5   704 – Lincoln Laboratory ETS, New Mexico MPS 65417
2002 11 15.44216 04 23 00.45 +35 57 25.5 18.3   704 – Lincoln Laboratory ETS, New Mexico MPS 65417
2002 12 06.21892 03 59 53.86 +35 28 22.6 18.0   704 – Lincoln Laboratory ETS, New Mexico MPS 67505
2002 12 06.23380 03 59 52.88 +35 28 19.5 18.1   704 – Lincoln Laboratory ETS, New Mexico MPS 67505
2002 12 06.24864 03 59 51.91 +35 28 16.1 18.0   704 – Lincoln Laboratory ETS, New Mexico MPS 67505
2002 12 06.26349 03 59 50.95 +35 28 12.9 17.7   704 – Lincoln Laboratory ETS, New Mexico MPS 67505
2002 12 06.27814 03 59 49.99 +35 28 09.6 17.6   704 – Lincoln Laboratory ETS, New Mexico MPS 67505
2002 12 15.21731 03 51 29.34 +34 50 53.4 18.3   704 – Lincoln Laboratory ETS, New Mexico MPS 67505
2002 12 15.23182 03 51 28.57 +34 50 49.7 18.1   704 – Lincoln Laboratory ETS, New Mexico MPS 67505
2002 12 15.24648 03 51 27.93 +34 50 45.2 18.4   704 – Lincoln Laboratory ETS, New Mexico MPS 67505
2002 12 15.27579 03 51 26.32 +34 50 37.1 18.5   704 – Lincoln Laboratory ETS, New Mexico MPS 67505
2002 12 29.22931 03 43 20.42 +33 40 55.7 18.7   704 – Lincoln Laboratory ETS, New Mexico MPS 69523
2002 12 29.24462 03 43 20.09 +33 40 51.8 19.0   704 – Lincoln Laboratory ETS, New Mexico MPS 69523
2002 12 29.26011 03 43 19.83 +33 40 46.3 18.6   704 – Lincoln Laboratory ETS, New Mexico MPS 69523
2003 01 04.18457 03 41 59.87 +33 11 23.8 19.1   704 – Lincoln Laboratory ETS, New Mexico MPS 69523
2003 01 04.20127 03 41 59.76 +33 11 18.9 19.3   704 – Lincoln Laboratory ETS, New Mexico MPS 69523
2003 01 04.21781 03 41 59.61 +33 11 13.7 20.0   704 – Lincoln Laboratory ETS, New Mexico MPS 69523
2003 01 04.23455 03 41 59.51 +33 11 08.5 19.3   704 – Lincoln Laboratory ETS, New Mexico MPS 69523
2003 01 07.16164 03 41 48.62 +32 57 24.5 18.4   704 – Lincoln Laboratory ETS, New Mexico MPS 69523
2003 01 07.17845 03 41 48.51 +32 57 19.5 19.2   704 – Lincoln Laboratory ETS, New Mexico MPS 69523
2003 01 07.19552 03 41 48.49 +32 57 14.5 19.0   704 – Lincoln Laboratory ETS, New Mexico MPS 69523
2003 01 07.23731 03 41 48.43 +32 57 02.7 18.8   704 – Lincoln Laboratory ETS, New Mexico MPS 69523
2003 01 13.17439 03 42 23.66 +32 31 02.3 19.0   704 – Lincoln Laboratory ETS, New Mexico MPS 71113
2003 01 13.18946 03 42 23.78 +32 30 58.0 18.6   704 – Lincoln Laboratory ETS, New Mexico MPS 71113
2003 01 13.20450 03 42 23.95 +32 30 54.3 19.1   704 – Lincoln Laboratory ETS, New Mexico MPS 71113
2003 01 13.21975 03 42 24.16 +32 30 50.9 19.1   704 – Lincoln Laboratory ETS, New Mexico MPS 71113
2003 01 31.20440 03 51 06.21 +31 31 12.1 18.9   704 – Lincoln Laboratory ETS, New Mexico MPS 71113
2003 01 31.21957 03 51 06.85 +31 31 09.8 19.1   704 – Lincoln Laboratory ETS, New Mexico MPS 71113
2003 01 31.23437 03 51 07.46 +31 31 07.1 19.2   704 – Lincoln Laboratory ETS, New Mexico MPS 71113
2003 01 31.24908 03 51 08.06 +31 31 05.5 18.8   704 – Lincoln Laboratory ETS, New Mexico MPS 71113
2003 02 19.11279 04 09 19.23 +30 57 56.3 19.5   644 – Palomar Mountain/NEAT MPS 73677
2003 02 19.12328 04 09 19.96 +30 57 55.3 19.6   644 – Palomar Mountain/NEAT MPS 73677
2003 02 19.13375 04 09 20.65 +30 57 54.8 19.9   644 – Palomar Mountain/NEAT MPS 73677
2004 02 20.42850 11 19 38.09 +06 08 06.4 20.7   608 – Haleakala-AMOS MPS 99939
2004 02 20.43959 11 19 37.49 +06 08 08.6 21.0   608 – Haleakala-AMOS MPS 99939
2004 02 20.45017 11 19 37.01 +06 08 11.4 20.5   608 – Haleakala-AMOS MPS 99939
2004 02 22.37938 11 18 00.43 +06 14 25.7 19.0 R 695 – Kitt Peak MPS 100845
2004 02 22.42094 11 17 58.27 +06 14 33.7   695 – Kitt Peak MPS 100845
2004 02 23.33739 11 17 11.82 +06 17 35.4 20.1   704 – Lincoln Laboratory ETS, New Mexico MPS 99939
2004 02 23.34975 11 17 11.10 +06 17 37.7 19.4   704 – Lincoln Laboratory ETS, New Mexico MPS 99939
2004 02 23.36216 11 17 10.47 +06 17 40.3 19.1   704 – Lincoln Laboratory ETS, New Mexico MPS 99939
2004 02 23.37444 11 17 09.85 +06 17 43.0 19.3   704 – Lincoln Laboratory ETS, New Mexico MPS 99939
2004 02 23.39258 11 17 08.87 +06 17 46.5 19.6   704 – Lincoln Laboratory ETS, New Mexico MPS 99939
2004 03 12.25030 11 01 16.05 +07 17 50.3 18.5   644 – Palomar Mountain/NEAT MPS 100983
2004 03 12.27331 11 01 14.80 +07 17 54.8 18.6   644 – Palomar Mountain/NEAT MPS 100983
2004 03 12.30793 11 01 12.93 +07 18 01.3 18.7   644 – Palomar Mountain/NEAT MPS 100983
2004 03 18.35291 10 56 01.51 +07 36 13.3 19.9 V 691 – Steward Observatory, Kitt Peak-Spacewatch MPS 100983
2004 03 18.38360 10 55 59.95 +07 36 18.7 19.1 V 691 – Steward Observatory, Kitt Peak-Spacewatch MPS 100983
2004 03 18.41407 10 55 58.40 +07 36 23.6 19.4 V 691 – Steward Observatory, Kitt Peak-Spacewatch MPS 100983
